This is the latest recevied weather packets stored in our database for station/object K2YYD-2. If no packets are shown the sender has not sent any weather packets the latest 10 day(s).
| Time | Temp. | Humidity | Pressure | Rain* | Wind** | Luminosity | Snow |
|---|---|---|---|---|---|---|---|
| 1777481004 | 15° C | 63% | 1011.4 hPa | 0 mm | - | 495 W/m² | - |
| 1777480884 | 15° C | 65% | 1011.4 hPa | 0 mm | - | 677 W/m² | - |
| 1777480763 | 15° C | 63% | 1011.4 hPa | 0 mm | - | 550 W/m² | - |
| 1777480644 | 15° C | 63% | 1011.4 hPa | 0 mm | - | 550 W/m² | - |
| 1777480524 | 15° C | 64% | 1011.4 hPa | 0 mm | - | 480 W/m² | - |
| 1777480404 | 15° C | 63% | 1011.5 hPa | 0 mm | - | 504 W/m² | - |
| 1777480284 | 15° C | 63% | 1011.5 hPa | 0 mm | - | 481 W/m² | - |
| 1777480164 | 15° C | 64% | 1011.5 hPa | 0 mm | - | 584 W/m² | - |
| 1777480044 | 15° C | 63% | 1011.5 hPa | 0 mm | - | 699 W/m² | - |
| 1777479921 | 15° C | 62% | 1011.4 hPa | 0 mm | - | 521 W/m² | - |
| 1777479803 | 15° C | 62% | 1011.4 hPa | 0 mm | - | 629 W/m² | - |
| 1777479683 | 15° C | 61% | 1011.4 hPa | 0 mm | - | 779 W/m² | - |
| 1777479563 | 15° C | 62% | 1011.6 hPa | 0 mm | - | 711 W/m² | - |
| 1777479443 | 15° C | 63% | 1011.6 hPa | 0 mm | - | 949 W/m² | - |
| 1777479319 | 15° C | 62% | 1011.6 hPa | 0 mm | - | 749 W/m² | - |
| 1777479200 | 15° C | 62% | 1011.6 hPa | 0 mm | - | 468 W/m² | - |
| 1777479079 | 15.56° C | 60% | 1011.7 hPa | 0 mm | - | 328 W/m² | - |
| 1777478960 | 15.56° C | 61% | 1011.7 hPa | 0 mm | - | 309 W/m² | - |
| 1777478840 | 15.56° C | 61% | 1011.8 hPa | 0 mm | - | 299 W/m² | - |
| 1777478720 | 15.56° C | 60% | 1011.8 hPa | 0 mm | - | 278 W/m² | - |
| 1777478599 | 15.56° C | 58% | 1011.8 hPa | 0 mm | - | 425 W/m² | - |
| 1777478479 | 15.56° C | 59% | 1011.8 hPa | 0 mm | - | 445 W/m² | - |
| 1777478358 | 15.56° C | 59% | 1011.8 hPa | 0 mm | - | 730 W/m² | - |
| 1777478252 | 15.56° C | 59% | 1011.7 hPa | 0 mm | - | 850 W/m² | - |
| 1777478118 | 15.56° C | 59% | 1011.7 hPa | 0 mm | - | 804 W/m² | - |
* Rain latest hour (hover to see other rain measurements)
** Current wind speed in m/s (hover to see current wind gust speed)